Weather History for KYNG - December, 2014

Change the Weather History Date:

Monday, December 22, 2014

  Actual Average Record
Temperature  
Mean Temperature 32 °F 28 °F  
Max Temperature 40 °F 35 °F 64 °F (2013)
Min Temperature 23 °F 22 °F -12 °F (1989)
Degree Days  
Heating Degree Days 33 37  
Month to date heating degree days 675 737  
Since 1 July heating degree days 2085 2066  
Cooling Degree Days 0 0  
Month to date cooling degree days 0 0  
Year to date cooling degree days 533 544  
Moisture  
Dew Point 25 °F    
Average Humidity 76    
Maximum Humidity 88    
Minimum Humidity 64    
Precipitation  
Precipitation 0.00 in 0.09 in 0.65 in (1981)
Month to date precipitation 1.69 2.15  
Year to date precipitation 38.64 38.07  
Snow  
Snow 0.00 in 0.50 in - ()
Month to date snowfall 0.7 10.4  
Since 1 July snowfall 12.3 14.8  
Snow Depth 0.00 in    
Sea Level Pressure  
Sea Level Pressure 30.08 in    
Wind  
Wind Speed 10 mph (ESE)    
Max Wind Speed 16 mph    
Max Gust Speed 21 mph    
Visibility 9 miles    
Events      
T = Trace of Precipitation, MM = Missing Value Source: NWS Daily Summary

Daily Weather History Graph

Daily Weather History Graph

Search for Another Location

Airport or City:

Trip Planner

Search our weather history database for the weather conditions in past years. The results will help you decide how hot, cold, wet, or windy it might be!

Date:

Astronomy

Dec. 22, 2014 Rise Set
Actual Time 7:45 AM EST 4:57 PM EST
Civil Twilight 7:14 AM EST 5:28 PM EST
Nautical Twilight 6:39 AM EST 6:03 PM EST
Astronomical Twilight 6:05 AM EST 6:37 PM EST
Moon 7:56 AM EST (12/22) 6:05 PM EST (12/22)
Length of Visible Light 10h 14m
Length of Day
9h 11m
New Moon, 1% of the Moon is Illuminated
Dec 22
New Moon
Dec 28
First Quarter
Jan 4
Full
Jan 13
Last Quarter
Jan 20
New

Hourly Weather History & Observations

Time (EST) Temp. Windchill Dew Point Humidity Pressure Visibility Wind Dir Wind Speed Gust Speed Precip Events Conditions
12:51 AM 25.0 °F 15.5 °F 21.0 °F 85% 30.20 in 10.0 mi East 9.2 mph - N/A   Scattered Clouds
1:51 AM 25.0 °F 15.5 °F 19.9 °F 81% 30.19 in 10.0 mi ESE 9.2 mph - N/A   Scattered Clouds
2:51 AM 24.1 °F 14.4 °F 19.9 °F 84% 30.18 in 10.0 mi East 9.2 mph - N/A   Scattered Clouds
3:51 AM 23.0 °F 13.9 °F 19.9 °F 88% 30.17 in 10.0 mi ESE 8.1 mph - N/A   Scattered Clouds
4:51 AM 24.1 °F 14.4 °F 19.9 °F 84% 30.14 in 10.0 mi ESE 9.2 mph - N/A   Scattered Clouds
5:51 AM 24.1 °F 14.4 °F 19.9 °F 84% 30.16 in 10.0 mi East 9.2 mph - N/A   Scattered Clouds
6:51 AM 24.1 °F 14.4 °F 21.0 °F 88% 30.15 in 9.0 mi East 9.2 mph - N/A   Overcast
7:51 AM 24.1 °F 13.7 °F 19.9 °F 84% 30.15 in 7.0 mi East 10.4 mph - N/A   Mostly Cloudy
8:51 AM 25.0 °F 16.3 °F 21.0 °F 85% 30.16 in 7.0 mi ESE 8.1 mph - N/A   Scattered Clouds
9:51 AM 28.9 °F 19.2 °F 24.1 °F 82% 30.15 in 7.0 mi ESE 11.5 mph - N/A   Overcast
10:51 AM 32.0 °F 24.2 °F 25.0 °F 75% 30.14 in 8.0 mi SE 9.2 mph - N/A   Mostly Cloudy
11:51 AM 36.0 °F 28.5 °F 27.0 °F 70% 30.10 in 9.0 mi SE 10.4 mph - N/A   Mostly Cloudy
12:51 PM 36.0 °F 29.0 °F 27.0 °F 70% 30.07 in 10.0 mi SE 9.2 mph - N/A   Overcast
1:51 PM 39.0 °F 31.4 °F 28.9 °F 67% 30.04 in 10.0 mi SE 12.7 mph - N/A   Mostly Cloudy
2:51 PM 39.9 °F 34.5 °F 28.9 °F 65% 30.03 in 10.0 mi ESE 8.1 mph - N/A   Mostly Cloudy
3:51 PM 39.0 °F 33.4 °F 28.9 °F 67% 30.03 in 10.0 mi SE 8.1 mph - N/A   Mostly Cloudy
4:51 PM 36.0 °F 29.6 °F 28.9 °F 76% 30.04 in 8.0 mi East 8.1 mph - N/A   Mostly Cloudy
5:51 PM 37.0 °F 28.5 °F 28.9 °F 73% 30.01 in 10.0 mi East 13.8 mph - N/A   Overcast
6:51 PM 36.0 °F 27.5 °F 28.0 °F 73% 29.99 in 10.0 mi East 12.7 mph - N/A   Mostly Cloudy
7:51 PM 36.0 °F 27.5 °F 28.0 °F 73% 29.99 in 9.0 mi ESE 12.7 mph - N/A   Overcast
8:51 PM 35.1 °F 25.9 °F 28.0 °F 76% 29.99 in 9.0 mi ESE 13.8 mph - N/A   Overcast
9:51 PM 35.1 °F 26.9 °F 28.0 °F 76% 29.97 in 8.0 mi ESE 11.5 mph - N/A   Mostly Cloudy
10:51 PM 35.1 °F 27.4 °F 28.9 °F 78% 29.96 in 9.0 mi ESE 10.4 mph - N/A   Overcast
11:51 PM 35.1 °F 26.9 °F 30.0 °F 82% 29.94 in 10.0 mi ESE 11.5 mph - N/A   Mostly Cloudy